CAPE
0 0 0 25 105 397 453 558 512 636 531 566 695 372 244 42 1 281 502 495 707 839 761 874 829 787 649 603 620 180 39 343 626
4 0 0 17 110 269 441 486 540 495 589 609 446 281 74 54 18 92 218 465 734 731 602 597 826 833 750 701 606 494 195 194 280
12 48 79 147 222 299 520 551 510 480 458 380 267 173 73 144 166 116 180 766 721 638 623 560 674 800 856 754 713 545 324 323 324
14 20 24 158 89 196 250 184 249 142 175 86 9 3 5 101 119 158 313 744 641 525 639 436 497 495 755 698 718 622 529 380 181
2 0 2 25 26 56 135 119 122 27 0 0 0 0 0 0 6 67 332 791 707 702 429 538 478 509 690 700 639 658 541 481 400
0 0 0 4 12 16 26 25 40 15 2 0 0 0 7 21 12 12 468 492 606 596 639 597 496 622 678 692 497 429 384 248 152
0 0 0 0 0 15 17 28 22 16 11 14 32 42 30 15 9 8 246 302 443 653 586 556 607 776 663 635 369 288 222 38 28
0 0 0 0 0 0 8 13 2 9 15 14 21 15 17 11 10 5 39 163 376 464 511 810 847 863 673 676 206 114 31 11 1
0 0 0 0 0 0 1 5 8 7 2 3 9 14 22 12 10 9 3 35 147 265 423 649 605 572 730 238 131 71 0 0 0
0 0 0 0 0 0 1 2 3 3 2 1 2 2 2 6 10 8 3 0 30 126 258 356 425 442 397 142 89 44 4 0 0
0 0 0 0 0 0 0 1 0 0 2 0 0 0 1 4 5 7 3 3 2 22 84 201 233 313 428 261 54 2 0 0 0
0 0 0 0 0 0 0 0 0 0 0 0 0 1 1 2 2 1 2 3 3 3 0 32 49 210 224 196 189 152 79 58 39
0 0 0 0 0 0 0 0 0 0 0 0 0 0 0 0 0 0 0 0 1 1 0 0 0 24 110 202 95 74 112 133 129
0 0 0 0 0 0 0 0 0 0 0 0 0 0 0 0 0 0 0 0 0 0 0 1 4 1 27 96 132 129 86 113 165
0 0 0 0 0 0 0 0 0 0 0 0 0 0 0 0 0 0 0 0 0 0 0 0 0 0 0 9 65 92 77 67 56
0 0 0 0 0 0 0 0 0 0 0 0 0 0 0 0 0 0 0 0 0 0 0 0 0 0 0 0 0 41 52 68 44
0 0 0 0 0 0 0 0 0 0 0 0 0 0 0 0 0 0 0 0 0 0 0 0 0 0 0 0 2 11 38 35 28
0 0 0 0 0 0 0 0 0 0 0 0 0 0 0 0 0 0 0 0 0 0 0 0 0 0 0 0 0 0 6 24 16
0 0 0 0 0 0 0 0 0 0 0 0 0 0 0 0 0 0 0 0 0 0 0 0 0 0 0 0 0 0 2 11 18
0 0 0 0 0 0 0 0 0 0 0 0 0 0 0 0 0 0 0 0 0 0 0 0 0 0 0 0 0 0 0 0 0
CIN
-0 -0 -0 -246 -97 -0 -0 -0 -0 -0 -0 -0 -2 -35 -60 -88 -18 -49 -30 -19 -0 -0 -1 -0 -0 -1 -6 -1 -8 -47 -77 -15 -4
-0 -0 -0 -231 -102 -25 -0 -0 -0 -0 -0 -0 -10 -38 -70 -8 -62 -68 -43 -7 -0 -0 -1 -5 -0 -0 -1 -3 -1 -3 -20 -13 -9
-0 -127 -178 -126 -87 -48 -0 -0 -0 -0 -0 -3 -16 -33 -14 -22 -29 -15 -34 -2 -0 -0 -1 -5 -2 -0 -0 -1 -2 -3 -12 -15 -10
-0 -9 -40 -157 -170 -83 -47 -66 -11 -31 -13 -27 -12 -8 -8 -29 -18 -34 -17 -1 -0 -0 -0 -3 -2 -2 -1 -1 -0 -1 -2 -5 -12
-16 -0 -10 -9 -11 -185 -141 -119 -94 -120 -0 -0 -0 -0 -0 -0 -28 -68 -15 -0 -0 -0 -2 -0 -0 -2 -0 -0 -0 -0 -2 -0 -4
-0 -0 -0 -9 -13 -10 -9 -14 -56 -13 -0 -0 -0 -0 -3 -7 -19 -29 -2 -0 -0 -0 -0 -2 -1 -0 -0 -0 -0 -0 -0 -5 -17
-0 -0 -0 -0 -0 -7 -4 -4 -12 -5 -0 -8 -1 -5 -7 -14 -1 -25 -3 -0 -0 -0 -0 -5 -2 -0 -0 -0 -1 -10 -10 -49 -46
-0 -0 -0 -0 -0 -0 -9 -15 -10 -0 -3 -0 -11 -0 -5 -2 -0 -0 -6 -4 -0 -0 -0 -0 -0 -0 -0 -0 -23 -41 -39 -71 -5
-0 -0 -0 -0 -0 -0 -1 -17 -5 -0 -0 -0 -2 -0 -13 -0 -13 -0 -0 -0 -0 -0 -0 -0 -0 -0 -0 -17 -40 -37 -0 -0 -0
-0 -0 -0 -0 -0 -0 -0 -0 -0 -0 -0 -0 -1 -4 -11 -0 -10 -3 -2 -0 -0 -0 -0 -0 -0 -0 -0 -12 -28 -39 -30 -0 -0
-0 -0 -0 -0 -0 -0 -0 -0 -0 -0 -0 -0 -0 -0 -3 -14 -5 -4 -0 -10 -0 -0 -17 -0 -0 -0 -0 -0 -15 -20 -0 -0 -0
-0 -0 -0 -0 -0 -0 -0 -0 -0 -0 -0 -0 -0 -0 -0 -0 -0 -0 -0 -12 -1 -0 -0 -0 -4 -0 -0 -0 -0 -13 -21 -20 -40
-0 -0 -0 -0 -0 -0 -0 -0 -0 -0 -0 -0 -0 -0 -0 -0 -0 -0 -0 -0 -0 -0 -0 -0 -0 -1 -2 -0 -2 -52 -28 -15 -8
-0 -0 -0 -0 -0 -0 -0 -0 -0 -0 -0 -0 -0 -0 -0 -0 -0 -0 -0 -0 -0 -0 -0 -0 -1 -0 -13 -9 -1 -21 -32 -76 -64
-0 -0 -0 -0 -0 -0 -0 -0 -0 -0 -0 -0 -0 -0 -0 -0 -0 -0 -0 -0 -0 -0 -0 -0 -0 -0 -0 -10 -4 -11 -0 -0 -41
-0 -0 -0 -0 -0 -0 -0 -0 -0 -0 -0 -0 -0 -0 -0 -0 -0 -0 -0 -0 -0 -0 -0 -0 -0 -0 -0 -0 -0 -3 -0 -0 -1
-0 -0 -0 -0 -0 -0 -0 -0 -0 -0 -0 -0 -0 -0 -0 -0 -0 -0 -0 -0 -0 -0 -0 -0 -0 -0 -0 -0 -0 -3 -0 -0 -1
-0 -0 -0 -0 -0 -0 -0 -0 -0 -0 -0 -0 -0 -0 -0 -0 -0 -0 -0 -0 -0 -0 -0 -0 -0 -0 -0 -0 -0 -0 -0 -0 -0
-0 -0 -0 -0 -0 -0 -0 -0 -0 -0 -0 -0 -0 -0 -0 -0 -0 -0 -0 -0 -0 -0 -0 -0 -0 -0 -0 -0 -0 -0 -0 -0 -0
-0 -0 -0 -0 -0 -0 -0 -0 -0 -0 -0 -0 -0 -0 -0 -0 -0 -0 -0 -0 -0 -0 -0 -0 -0 -0 -0 -0 -0 -0 -0 -0 -0
Wind_Speed
nan nan nan nan 12 15 17 18 18 20 19 20 20 18 19 nan nan 20 22 19 28 30 28 28 30 28 26 25 24 22 nan 23 24
nan nan nan nan 12 13 17 19 19 20 19 19 18 19 nan nan nan nan 21 21 26 23 26 28 28 31 30 27 26 23 21 24 25
nan nan nan 15 16 16 19 22 21 18 17 16 16 16 nan 15 21 21 20 23 25 26 24 24 28 33 33 32 28 25 25 28 32
nan nan nan 17 nan 16 17 18 16 15 15 nan nan nan nan 16 18 20 18 22 26 29 29 28 29 31 34 36 34 33 30 32 32
nan nan nan nan nan nan 17 15 19 nan nan nan nan nan nan nan nan nan 20 27 30 31 31 31 32 33 37 40 43 40 40 38 37
nan nan nan nan nan nan nan nan nan nan nan nan nan nan nan nan nan nan 20 24 31 34 34 32 32 36 39 41 42 43 43 39 36
nan nan nan nan nan nan nan nan nan nan nan nan nan nan nan nan nan nan 24 23 30 35 38 36 34 38 39 41 41 41 42 nan nan
nan nan nan nan nan nan nan nan nan nan nan nan nan nan nan nan nan nan nan 28 31 35 39 41 42 45 41 42 45 46 nan nan nan
nan nan nan nan nan nan nan nan nan nan nan nan nan nan nan nan nan nan nan nan 33 36 38 44 44 46 45 45 44 nan nan nan nan
nan nan nan nan nan nan nan nan nan nan nan nan nan nan nan nan nan nan nan nan nan 37 43 43 43 43 45 45 nan nan nan nan nan
nan nan nan nan nan nan nan nan nan nan nan nan nan nan nan nan nan nan nan nan nan nan nan 43 44 43 42 42 nan nan nan nan nan
nan nan nan nan nan nan nan nan nan nan nan nan nan nan nan nan nan nan nan nan nan nan nan nan nan 44 44 42 42 42 nan nan nan
nan nan nan nan nan nan nan nan nan nan nan nan nan nan nan nan nan nan nan nan nan nan nan nan nan nan 45 43 nan nan 45 46 45
nan nan nan nan nan nan nan nan nan nan nan nan nan nan nan nan nan nan nan nan nan nan nan nan nan nan nan nan 43 48 nan 47 48
nan nan nan nan nan nan nan nan nan nan nan nan nan nan nan nan nan nan nan nan nan nan nan nan nan nan nan nan nan nan nan nan nan
nan nan nan nan nan nan nan nan nan nan nan nan nan nan nan nan nan nan nan nan nan nan nan nan nan nan nan nan nan nan nan nan nan
nan nan nan nan nan nan nan nan nan nan nan nan nan nan nan nan nan nan nan nan nan nan nan nan nan nan nan nan nan nan nan nan nan
nan nan nan nan nan nan nan nan nan nan nan nan nan nan nan nan nan nan nan nan nan nan nan nan nan nan nan nan nan nan nan nan nan
nan nan nan nan nan nan nan nan nan nan nan nan nan nan nan nan nan nan nan nan nan nan nan nan nan nan nan nan nan nan nan nan nan
nan nan nan nan nan nan nan nan nan nan nan nan nan nan nan nan nan nan nan nan nan nan nan nan nan nan nan nan nan nan nan nan nan
Wind_Direction
nan nan nan nan 220 237 247 253 253 254 257 257 252 241 236 nan nan 263 262 260 254 256 257 255 256 253 249 249 258 257 nan 245 252
nan nan nan nan 254 255 258 258 256 254 255 255 248 241 nan nan nan nan 258 258 257 254 261 259 263 259 254 255 253 257 249 237 237
nan nan nan 257 261 259 268 265 262 260 257 251 243 237 nan 254 269 267 265 256 256 251 253 258 263 266 264 257 257 258 254 249 248
nan nan nan 255 nan 256 255 260 259 255 248 nan nan nan nan 267 267 266 267 260 263 259 255 252 259 263 264 265 260 258 262 254 250
nan nan nan nan nan nan 268 270 259 nan nan nan nan nan nan nan nan nan 266 259 264 264 263 257 258 260 261 262 264 265 263 259 263
nan nan nan nan nan nan nan nan nan nan nan nan nan nan nan nan nan nan 252 258 264 265 263 262 264 264 265 266 264 264 264 265 261
nan nan nan nan nan nan nan nan nan nan nan nan nan nan nan nan nan nan 249 256 256 259 258 264 269 274 268 265 266 266 261 nan nan
nan nan nan nan nan nan nan nan nan nan nan nan nan nan nan nan nan nan nan 253 254 255 254 263 270 275 274 269 263 264 nan nan nan
nan nan nan nan nan nan nan nan nan nan nan nan nan nan nan nan nan nan nan nan 260 259 259 265 267 273 276 272 267 nan nan nan nan
nan nan nan nan nan nan nan nan nan nan nan nan nan nan nan nan nan nan nan nan nan 259 255 262 266 270 275 275 nan nan nan nan nan
nan nan nan nan nan nan nan nan nan nan nan nan nan nan nan nan nan nan nan nan nan nan nan 255 257 266 272 276 nan nan nan nan nan
nan nan nan nan nan nan nan nan nan nan nan nan nan nan nan nan nan nan nan nan nan nan nan nan nan 256 265 272 268 266 nan nan nan
nan nan nan nan nan nan nan nan nan nan nan nan nan nan nan nan nan nan nan nan nan nan nan nan nan nan 255 261 nan nan 257 253 248
nan nan nan nan nan nan nan nan nan nan nan nan nan nan nan nan nan nan nan nan nan nan nan nan nan nan nan nan 260 260 nan 255 253
nan nan nan nan nan nan nan nan nan nan nan nan nan nan nan nan nan nan nan nan nan nan nan nan nan nan nan nan nan nan nan nan nan
nan nan nan nan nan nan nan nan nan nan nan nan nan nan nan nan nan nan nan nan nan nan nan nan nan nan nan nan nan nan nan nan nan
nan nan nan nan nan nan nan nan nan nan nan nan nan nan nan nan nan nan nan nan nan nan nan nan nan nan nan nan nan nan nan nan nan
nan nan nan nan nan nan nan nan nan nan nan nan nan nan nan nan nan nan nan nan nan nan nan nan nan nan nan nan nan nan nan nan nan
nan nan nan nan nan nan nan nan nan nan nan nan nan nan nan nan nan nan nan nan nan nan nan nan nan nan nan nan nan nan nan nan nan
nan nan nan nan nan nan nan nan nan nan nan nan nan nan nan nan nan nan nan nan nan nan nan nan nan nan nan nan nan nan nan nan nan